Location: Bois de la Silve
(44.4667°N, 6.7833°E)
Time: 20:18:19
(UTC+00:00)

ERS-2 - Pass Details

Date: 14 July 2020
Orbit: 494 x 498 km, 98.5° (Epoch: 14 August)

Event Time Altitude Azimuth Distance (km) Brightness Sun altitude
Rises 02:28:20 0° 147° (SSE) 2,569 5.6 -13.4°
Reaches altitude 10° 02:30:29 10° 140° (SE) 1,691 4.7 -13.2°
Maximum altitude 02:33:52 39° 70° (ENE) 760 3.6 -12.8°
Drops below altitude 10° 02:37:18 10° 1° (N) 1,702 5.6 -12.4°
Sets 02:39:27 0° 354° (N) 2,589 6.4 -12.1°
